Time,TemperatureF,DewpointF,PressureIn,WindDirection,WindDirectionDegrees,WindSpeedMPH,WindSpeedGustMPH,Humidity,HourlyPrecipIn,Conditions,Clouds,dailyrainin,SoftwareType,DateUTC
2013-05-15 00:04:00,54.3,33.2,30.46,ESE,113,0.0,0.0,45,0.00,,,0.00,WUHU216HW,2013-05-15 04:04:00,
2013-05-15 00:09:00,54.1,33.6,30.46,ESE,113,0.0,0.0,46,0.00,,,0.00,WUHU216HW,2013-05-15 04:09:00,
2013-05-15 00:14:00,54.1,33.6,30.46,ESE,113,0.0,0.0,46,0.00,,,0.00,WUHU216HW,2013-05-15 04:14:00,
2013-05-15 00:19:00,54.1,34.2,30.45,ESE,113,0.0,0.0,47,0.00,,,0.00,WUHU216HW,2013-05-15 04:19:00,
2013-05-15 00:24:00,53.9,33.5,30.45,ESE,113,0.0,0.0,46,0.00,,,0.00,WUHU216HW,2013-05-15 04:24:00,
2013-05-15 00:29:00,53.9,34.0,30.45,ESE,113,0.0,0.0,47,0.00,,,0.00,WUHU216HW,2013-05-15 04:29:00,
2013-05-15 00:34:00,53.7,33.3,30.45,ESE,113,0.0,0.0,46,0.00,,,0.00,WUHU216HW,2013-05-15 04:34:00,
2013-05-15 00:39:00,53.7,32.7,30.45,ESE,113,0.0,0.0,45,0.00,,,0.00,WUHU216HW,2013-05-15 04:39:00,
2013-05-15 00:44:00,53.7,32.2,30.45,ESE,113,0.0,0.0,44,0.00,,,0.00,WUHU216HW,2013-05-15 04:44:00,
2013-05-15 00:49:00,53.7,32.2,30.45,SE,135,0.0,0.0,44,0.00,,,0.00,WUHU216HW,2013-05-15 04:49:00,
2013-05-15 00:54:00,53.7,31.6,30.45,ESE,113,0.0,0.0,43,0.00,,,0.00,WUHU216HW,2013-05-15 04:54:00,
2013-05-15 00:59:00,53.7,31.6,30.45,SE,135,0.0,0.0,43,0.00,,,0.00,WUHU216HW,2013-05-15 04:59:00,
2013-05-15 01:04:00,53.9,31.2,30.45,North,0,0.0,0.0,42,0.00,,,0.00,WUHU216HW,2013-05-15 05:04:00,
2013-05-15 01:09:00,54.1,30.8,30.45,North,0,0.0,0.0,41,0.00,,,0.00,WUHU216HW,2013-05-15 05:09:00,
2013-05-15 01:14:00,53.9,30.7,30.45,ESE,113,0.0,0.0,41,0.00,,,0.00,WUHU216HW,2013-05-15 05:14:00,
2013-05-15 01:19:00,53.9,30.7,30.45,ESE,113,0.0,0.0,41,0.00,,,0.00,WUHU216HW,2013-05-15 05:19:00,
2013-05-15 01:24:00,53.7,30.5,30.45,ENE,68,0.0,0.0,41,0.00,,,0.00,WUHU216HW,2013-05-15 05:24:00,
2013-05-15 01:29:00,53.7,30.5,30.45,ENE,68,0.0,0.0,41,0.00,,,0.00,WUHU216HW,2013-05-15 05:29:00,
2013-05-15 01:34:00,53.7,30.5,30.45,ENE,68,0.0,0.0,41,0.00,,,0.00,WUHU216HW,2013-05-15 05:34:00,
2013-05-15 01:39:00,53.7,30.5,30.45,ENE,68,0.0,0.0,41,0.00,,,0.00,WUHU216HW,2013-05-15 05:39:00,
2013-05-15 01:44:00,53.7,30.5,30.44,ENE,68,0.0,0.0,41,0.00,,,0.00,WUHU216HW,2013-05-15 05:44:00,
2013-05-15 01:49:00,53.4,30.7,30.44,ENE,68,0.0,0.0,42,0.00,,,0.00,WUHU216HW,2013-05-15 05:49:00,
2013-05-15 01:54:00,53.4,30.7,30.45,ENE,68,0.0,0.0,42,0.00,,,0.00,WUHU216HW,2013-05-15 05:54:00,
2013-05-15 01:59:00,53.4,30.7,30.45,ENE,68,0.0,0.0,42,0.00,,,0.00,WUHU216HW,2013-05-15 05:59:00,
2013-05-15 02:04:00,53.2,31.1,30.45,ENE,68,0.0,0.0,43,0.00,,,0.00,WUHU216HW,2013-05-15 06:04:00,
2013-05-15 02:09:00,52.8,30.8,30.44,ENE,68,0.0,0.0,43,0.00,,,0.00,WUHU216HW,2013-05-15 06:09:00,
2013-05-15 02:14:00,52.8,30.8,30.44,ESE,113,0.0,0.0,43,0.00,,,0.00,WUHU216HW,2013-05-15 06:14:00,
2013-05-15 02:19:00,52.7,31.2,30.44,ESE,113,0.0,0.0,44,0.00,,,0.00,WUHU216HW,2013-05-15 06:19:00,
2013-05-15 02:24:00,52.7,31.2,30.44,ESE,113,0.0,0.0,44,0.00,,,0.00,WUHU216HW,2013-05-15 06:24:00,
2013-05-15 02:29:00,52.7,31.2,30.44,SE,135,0.0,0.0,44,0.00,,,0.00,WUHU216HW,2013-05-15 06:29:00,
2013-05-15 02:34:00,52.5,31.6,30.44,NNE,23,0.0,0.0,45,0.00,,,0.00,WUHU216HW,2013-05-15 06:34:00,
2013-05-15 02:39:00,52.5,31.1,30.44,NE,45,0.0,0.0,44,0.00,,,0.00,WUHU216HW,2013-05-15 06:39:00,
2013-05-15 02:44:00,52.5,31.1,30.44,NE,45,0.0,0.0,44,0.00,,,0.00,WUHU216HW,2013-05-15 06:44:00,
2013-05-15 02:49:00,52.5,31.1,30.44,NE,45,0.0,0.0,44,0.00,,,0.00,WUHU216HW,2013-05-15 06:49:00,
2013-05-15 02:54:00,52.5,31.1,30.44,East,90,0.0,0.0,44,0.00,,,0.00,WUHU216HW,2013-05-15 06:54:00,
2013-05-15 02:59:00,52.5,31.1,30.44,East,90,0.0,0.0,44,0.00,,,0.00,WUHU216HW,2013-05-15 06:59:00,
2013-05-15 03:04:00,52.5,31.6,30.44,ENE,68,0.0,0.0,45,0.00,,,0.00,WUHU216HW,2013-05-15 07:04:00,
2013-05-15 03:09:00,52.5,31.6,30.44,East,90,0.0,0.0,45,0.00,,,0.00,WUHU216HW,2013-05-15 07:09:00,
2013-05-15 03:14:00,52.5,32.2,30.43,East,90,0.0,0.0,46,0.00,,,0.00,WUHU216HW,2013-05-15 07:14:00,
2013-05-15 03:19:00,52.5,32.2,30.44,ESE,113,0.0,0.0,46,0.00,,,0.00,WUHU216HW,2013-05-15 07:19:00,
2013-05-15 03:24:00,52.5,32.2,30.44,ESE,113,0.0,0.0,46,0.00,,,0.00,WUHU216HW,2013-05-15 07:24:00,
2013-05-15 03:29:00,52.5,32.2,30.43,ESE,113,0.0,0.0,46,0.00,,,0.00,WUHU216HW,2013-05-15 07:29:00,
2013-05-15 03:34:00,52.5,32.7,30.43,ESE,113,0.0,0.0,47,0.00,,,0.00,WUHU216HW,2013-05-15 07:34:00,
2013-05-15 03:39:00,52.5,32.7,30.43,ESE,113,0.0,0.0,47,0.00,,,0.00,WUHU216HW,2013-05-15 07:39:00,
2013-05-15 03:44:00,52.7,32.9,30.43,East,90,0.0,0.0,47,0.00,,,0.00,WUHU216HW,2013-05-15 07:44:00,
2013-05-15 03:49:00,52.7,32.9,30.43,NE,45,0.0,0.0,47,0.00,,,0.00,WUHU216HW,2013-05-15 07:49:00,
2013-05-15 03:54:00,52.7,32.9,30.43,NE,45,0.0,0.0,47,0.00,,,0.00,WUHU216HW,2013-05-15 07:54:00,
2013-05-15 03:59:00,52.7,32.9,30.43,ENE,68,0.0,0.0,47,0.00,,,0.00,WUHU216HW,2013-05-15 07:59:00,
2013-05-15 04:04:00,52.7,33.4,30.43,NE,45,0.0,0.0,48,0.00,,,0.00,WUHU216HW,2013-05-15 08:04:00,
2013-05-15 04:09:00,52.7,34.0,30.43,NNE,23,0.0,0.0,49,0.00,,,0.00,WUHU216HW,2013-05-15 08:09:00,
2013-05-15 04:14:00,52.8,35.6,30.43,North,0,3.8,3.8,51,0.00,,,0.00,WUHU216HW,2013-05-15 08:14:00,
2013-05-15 04:19:00,52.8,35.6,30.43,NNW,338,0.0,3.8,52,0.00,,,0.00,WUHU216HW,2013-05-15 08:19:00,
2013-05-15 04:24:00,52.8,36.1,30.43,NNW,338,0.0,3.8,53,0.00,,,0.00,WUHU216HW,2013-05-15 08:24:00,
2013-05-15 04:29:00,52.8,36.1,30.43,North,0,0.0,0.0,53,0.00,,,0.00,WUHU216HW,2013-05-15 08:29:00,
2013-05-15 04:34:00,53.0,37.2,30.42,NE,45,0.0,0.0,55,0.00,,,0.00,WUHU216HW,2013-05-15 08:34:00,
2013-05-15 04:39:00,53.2,37.8,30.43,ENE,68,0.0,0.0,56,0.00,,,0.00,WUHU216HW,2013-05-15 08:39:00,
2013-05-15 04:44:00,53.2,37.8,30.43,East,90,0.0,0.0,56,0.00,,,0.00,WUHU216HW,2013-05-15 08:44:00,
2013-05-15 04:49:00,53.2,37.8,30.42,East,90,0.0,0.0,56,0.00,,,0.00,WUHU216HW,2013-05-15 08:49:00,
2013-05-15 04:54:00,53.2,37.8,30.42,East,90,0.0,0.0,56,0.00,,,0.00,WUHU216HW,2013-05-15 08:54:00,
2013-05-15 04:59:00,53.2,38.3,30.42,East,90,0.0,0.0,57,0.00,,,0.00,WUHU216HW,2013-05-15 08:59:00,
2013-05-15 05:04:00,53.2,38.8,30.42,ENE,68,0.0,0.0,58,0.00,,,0.00,WUHU216HW,2013-05-15 09:04:00,
2013-05-15 05:09:00,53.2,38.3,30.42,SE,135,0.0,0.0,57,0.00,,,0.00,WUHU216HW,2013-05-15 09:09:00,
2013-05-15 05:14:00,53.2,38.8,30.42,SSE,158,0.0,0.0,58,0.00,,,0.00,WUHU216HW,2013-05-15 09:14:00,
2013-05-15 05:19:00,53.2,38.8,30.42,NNW,338,0.0,0.0,58,0.00,,,0.00,WUHU216HW,2013-05-15 09:19:00,
2013-05-15 05:24:00,53.2,39.2,30.42,NE,45,0.0,0.0,59,0.00,,,0.00,WUHU216HW,2013-05-15 09:24:00,
2013-05-15 05:29:00,53.2,38.8,30.42,ENE,68,0.0,0.0,58,0.00,,,0.00,WUHU216HW,2013-05-15 09:29:00,
2013-05-15 05:34:00,53.2,39.2,30.42,ENE,68,0.0,0.0,59,0.00,,,0.00,WUHU216HW,2013-05-15 09:34:00,
2013-05-15 05:39:00,53.2,39.2,30.42,East,90,0.0,0.0,59,0.00,,,0.00,WUHU216HW,2013-05-15 09:39:00,
2013-05-15 05:44:00,53.2,39.7,30.42,ENE,68,0.0,0.0,60,0.00,,,0.00,WUHU216HW,2013-05-15 09:44:00,
2013-05-15 05:49:00,53.2,39.7,30.42,ENE,68,0.0,0.0,60,0.00,,,0.00,WUHU216HW,2013-05-15 09:49:00,
2013-05-15 05:55:00,53.2,39.7,30.42,East,90,0.0,0.0,60,0.00,,,0.00,WUHU216HW,2013-05-15 09:55:00,
2013-05-15 06:00:00,53.2,39.7,30.41,East,90,0.0,0.0,60,0.00,,,0.00,WUHU216HW,2013-05-15 10:00:00,
2013-05-15 06:05:00,53.2,39.7,30.41,ESE,113,0.0,0.0,60,0.00,,,0.00,WUHU216HW,2013-05-15 10:05:00,
2013-05-15 06:10:00,53.4,39.9,30.42,ESE,113,0.0,0.0,60,0.00,,,0.00,WUHU216HW,2013-05-15 10:10:00,
2013-05-15 06:15:00,53.4,40.3,30.42,ESE,113,0.0,0.0,61,0.00,,,0.00,WUHU216HW,2013-05-15 10:15:00,
2013-05-15 06:20:00,53.4,40.3,30.42,SSE,158,0.0,0.0,61,0.00,,,0.00,WUHU216HW,2013-05-15 10:20:00,
2013-05-15 06:25:00,53.4,40.7,30.42,ENE,68,0.0,0.0,62,0.00,,,0.00,WUHU216HW,2013-05-15 10:25:00,
2013-05-15 06:30:00,53.4,40.7,30.42,ENE,68,0.0,0.0,62,0.00,,,0.00,WUHU216HW,2013-05-15 10:30:00,
2013-05-15 06:35:00,53.6,40.8,30.42,SE,135,0.0,0.0,62,0.00,,,0.00,WUHU216HW,2013-05-15 10:35:00,
2013-05-15 06:40:00,53.7,41.0,30.42,East,90,0.0,0.0,62,0.00,,,0.00,WUHU216HW,2013-05-15 10:40:00,
2013-05-15 06:45:00,53.7,41.4,30.42,ESE,113,0.0,0.0,63,0.00,,,0.00,WUHU216HW,2013-05-15 10:45:00,
2013-05-15 06:50:00,53.7,41.4,30.42,SE,135,0.0,0.0,63,0.00,,,0.00,WUHU216HW,2013-05-15 10:50:00,
2013-05-15 06:55:00,53.9,42.0,30.42,SE,135,0.0,0.0,64,0.00,,,0.00,WUHU216HW,2013-05-15 10:55:00,
2013-05-15 07:00:00,53.9,41.6,30.42,ESE,113,0.0,0.0,63,0.00,,,0.00,WUHU216HW,2013-05-15 11:00:00,
2013-05-15 07:05:00,53.9,41.6,30.42,SE,135,0.0,4.4,63,0.00,,,0.00,WUHU216HW,2013-05-15 11:05:00,
2013-05-15 07:10:00,54.1,41.7,30.42,SE,135,0.0,4.4,63,0.00,,,0.00,WUHU216HW,2013-05-15 11:10:00,
2013-05-15 07:16:00,54.1,41.7,30.41,ESE,113,0.0,0.0,63,0.00,,,0.00,WUHU216HW,2013-05-15 11:16:00,
2013-05-15 07:21:00,54.1,41.7,30.41,ESE,113,0.0,2.2,63,0.00,,,0.00,WUHU216HW,2013-05-15 11:21:00,
2013-05-15 07:26:00,54.1,42.1,30.41,ESE,113,0.0,2.2,64,0.00,,,0.00,WUHU216HW,2013-05-15 11:26:00,
2013-05-15 07:31:00,54.1,42.1,30.41,ESE,113,0.0,0.0,64,0.00,,,0.00,WUHU216HW,2013-05-15 11:31:00,
2013-05-15 07:36:00,54.3,42.3,30.41,East,90,0.0,0.0,64,0.00,,,0.00,WUHU216HW,2013-05-15 11:36:00,
2013-05-15 07:41:00,54.3,42.3,30.41,South,180,0.0,0.0,64,0.00,,,0.00,WUHU216HW,2013-05-15 11:41:00,
2013-05-15 07:46:00,54.3,42.3,30.41,ESE,113,0.0,0.0,64,0.00,,,0.00,WUHU216HW,2013-05-15 11:46:00,
2013-05-15 07:51:00,54.5,42.5,30.40,SSE,158,0.0,0.0,64,0.00,,,0.00,WUHU216HW,2013-05-15 11:51:00,
2013-05-15 07:56:00,54.6,42.2,30.40,SE,135,0.0,0.0,63,0.00,,,0.00,WUHU216HW,2013-05-15 11:56:00,
2013-05-15 08:01:00,55.0,42.2,30.41,ESE,113,0.0,0.0,62,0.00,,,0.00,WUHU216HW,2013-05-15 12:01:00,
2013-05-15 08:06:00,55.2,42.3,30.41,ESE,113,0.0,0.0,62,0.00,,,0.00,WUHU216HW,2013-05-15 12:06:00,
2013-05-15 08:11:00,55.4,42.5,30.41,ESE,113,0.0,0.0,62,0.00,,,0.00,WUHU216HW,2013-05-15 12:11:00,
2013-05-15 08:16:00,55.9,42.6,30.41,ESE,113,0.0,0.0,61,0.00,,,0.00,WUHU216HW,2013-05-15 12:16:00,
2013-05-15 08:21:00,55.9,42.6,30.40,SE,135,4.9,4.9,61,0.00,,,0.00,WUHU216HW,2013-05-15 12:21:00,
2013-05-15 08:26:00,56.1,42.8,30.40,ESE,113,0.0,4.9,61,0.00,,,0.00,WUHU216HW,2013-05-15 12:26:00,
2013-05-15 08:31:00,56.3,42.6,30.39,SE,135,0.0,4.9,60,0.00,,,0.00,WUHU216HW,2013-05-15 12:31:00,
2013-05-15 08:36:00,56.4,42.8,30.40,SE,135,0.0,0.0,60,0.00,,,0.00,WUHU216HW,2013-05-15 12:36:00,
2013-05-15 08:41:00,56.8,43.1,30.39,ESE,113,0.0,0.0,60,0.00,,,0.00,WUHU216HW,2013-05-15 12:41:00,
2013-05-15 08:47:00,57.3,43.2,30.40,SE,135,0.0,3.3,59,0.00,,,0.00,WUHU216HW,2013-05-15 12:47:00,
2013-05-15 08:52:00,57.9,43.2,30.39,SE,135,0.0,3.3,58,0.00,,,0.00,WUHU216HW,2013-05-15 12:52:00,
2013-05-15 08:57:00,58.2,43.0,30.39,SSE,158,0.0,0.0,57,0.00,,,0.00,WUHU216HW,2013-05-15 12:57:00,
2013-05-15 09:02:00,58.8,43.1,30.39,ESE,113,2.0,2.0,56,0.00,,,0.00,WUHU216HW,2013-05-15 13:02:00,
2013-05-15 09:07:00,59.1,42.4,30.39,SSW,203,0.0,2.0,54,0.00,,,0.00,WUHU216HW,2013-05-15 13:07:00,
2013-05-15 09:13:00,59.5,41.8,30.38,ENE,68,0.0,0.0,52,0.00,,,0.00,WUHU216HW,2013-05-15 13:13:00,
2013-05-15 09:18:00,59.5,42.3,30.37,East,90,7.1,7.1,53,0.00,,,0.00,WUHU216HW,2013-05-15 13:18:00,
2013-05-15 09:23:00,60.0,43.3,30.37,SE,135,4.0,7.1,54,0.00,,,0.00,WUHU216HW,2013-05-15 13:23:00,
2013-05-15 09:28:00,60.2,43.5,30.37,ESE,113,1.1,7.1,54,0.00,,,0.00,WUHU216HW,2013-05-15 13:28:00,
2013-05-15 09:33:00,60.6,43.3,30.37,ESE,113,6.2,6.2,54,0.00,,,0.00,WUHU216HW,2013-05-15 13:33:00,
2013-05-15 09:38:00,61.1,43.3,30.36,East,90,6.9,6.9,52,0.00,,,0.00,WUHU216HW,2013-05-15 13:38:00,
2013-05-15 09:43:00,61.5,43.2,30.37,ESE,113,0.0,6.9,51,0.00,,,0.00,WUHU216HW,2013-05-15 13:43:00,
2013-05-15 09:48:00,62.0,42.2,30.36,ENE,68,0.0,6.9,48,0.00,,,0.00,WUHU216HW,2013-05-15 13:48:00,
2013-05-15 09:54:00,61.8,40.7,30.36,ESE,113,0.0,6.2,46,0.00,,,0.00,WUHU216HW,2013-05-15 13:54:00,
2013-05-15 09:59:00,62.2,41.6,30.35,ESE,113,5.8,6.2,47,0.00,,,0.00,WUHU216HW,2013-05-15 13:59:00,
2013-05-15 10:04:00,62.4,41.2,30.35,SE,135,3.3,7.3,46,0.00,,,0.00,WUHU216HW,2013-05-15 14:04:00,
2013-05-15 10:09:00,62.4,41.2,30.35,ESE,113,5.1,7.3,46,0.00,,,0.00,WUHU216HW,2013-05-15 14:09:00,
2013-05-15 10:14:00,62.2,41.0,30.36,SSE,158,2.0,5.1,46,0.00,,,0.00,WUHU216HW,2013-05-15 14:14:00,
2013-05-15 10:19:00,62.2,41.6,30.36,ESE,113,5.1,5.1,47,0.00,,,0.00,WUHU216HW,2013-05-15 14:19:00,
2013-05-15 10:24:00,62.2,41.6,30.37,SSE,158,0.0,5.8,47,0.00,,,0.00,WUHU216HW,2013-05-15 14:24:00,
2013-05-15 10:29:00,62.0,42.0,30.36,ESE,113,7.1,7.1,48,0.00,,,0.00,WUHU216HW,2013-05-15 14:29:00,
2013-05-15 10:34:00,61.7,42.3,30.37,SE,135,5.3,7.1,49,0.00,,,0.00,WUHU216HW,2013-05-15 14:34:00,
2013-05-15 10:39:00,61.3,41.9,30.36,NNW,338,0.0,7.8,49,0.00,,,0.00,WUHU216HW,2013-05-15 14:39:00,
2013-05-15 10:45:00,61.1,41.8,30.36,ESE,113,2.9,7.8,49,0.00,,,0.00,WUHU216HW,2013-05-15 14:45:00,
2013-05-15 10:51:00,60.9,41.6,30.36,ESE,113,6.0,6.0,49,0.00,,,0.00,WUHU216HW,2013-05-15 14:51:00,
2013-05-15 10:56:00,60.6,40.7,30.35,SE,135,7.1,7.1,48,0.00,,,0.00,WUHU216HW,2013-05-15 14:56:00,
2013-05-15 11:01:00,60.4,41.1,30.34,SSE,158,0.0,7.1,49,0.00,,,0.00,WUHU216HW,2013-05-15 15:01:00,
2013-05-15 11:07:00,60.4,41.1,30.34,ESE,113,0.0,7.1,49,0.00,,,0.00,WUHU216HW,2013-05-15 15:07:00,
2013-05-15 11:12:00,60.0,40.8,30.34,East,90,0.0,6.2,49,0.00,,,0.00,WUHU216HW,2013-05-15 15:12:00,
2013-05-15 11:17:00,59.9,41.2,30.35,SSE,158,6.0,6.2,50,0.00,,,0.00,WUHU216HW,2013-05-15 15:17:00,
2013-05-15 11:22:00,59.7,41.5,30.35,SSE,158,0.0,6.0,51,0.00,,,0.00,WUHU216HW,2013-05-15 15:22:00,
2013-05-15 11:28:00,59.5,41.8,30.36,SE,135,0.0,3.8,52,0.00,,,0.00,WUHU216HW,2013-05-15 15:28:00,
2013-05-15 11:33:00,59.5,42.3,30.36,SE,135,0.0,6.0,53,0.00,,,0.00,WUHU216HW,2013-05-15 15:33:00,
2013-05-15 11:38:00,59.3,42.6,30.35,ESE,113,4.9,6.2,54,0.00,,,0.00,WUHU216HW,2013-05-15 15:38:00,
2013-05-15 11:43:00,59.0,43.2,30.35,SE,135,2.6,6.2,56,0.00,,,0.00,WUHU216HW,2013-05-15 15:43:00,
2013-05-15 11:48:00,58.8,44.0,30.34,SE,135,6.7,6.9,58,0.00,,,0.00,WUHU216HW,2013-05-15 15:48:00,
2013-05-15 11:53:00,58.8,44.5,30.33,SSE,158,4.2,6.9,59,0.00,,,0.00,WUHU216HW,2013-05-15 15:53:00,
2013-05-15 11:58:00,58.6,44.8,30.33,SE,135,10.9,10.9,60,0.00,,,0.00,WUHU216HW,2013-05-15 15:58:00,
2013-05-15 12:03:00,58.2,44.8,30.32,SE,135,4.9,10.9,61,0.00,,,0.00,WUHU216HW,2013-05-15 16:03:00,
2013-05-15 12:08:00,58.4,45.4,30.32,SE,135,0.0,7.1,62,0.00,,,0.00,WUHU216HW,2013-05-15 16:08:00,
2013-05-15 12:13:00,58.6,45.6,30.32,SE,135,2.4,7.1,62,0.00,,,0.00,WUHU216HW,2013-05-15 16:13:00,
2013-05-15 12:20:00,58.8,46.6,30.32,ESE,113,0.0,6.4,64,0.00,,,0.00,WUHU216HW,2013-05-15 16:20:00,
2013-05-15 12:25:00,58.8,46.6,30.32,SSE,158,0.0,0.0,64,0.00,,,0.00,WUHU216HW,2013-05-15 16:25:00,
2013-05-15 12:30:00,59.1,47.3,30.32,SE,135,0.0,6.0,65,0.00,,,0.00,WUHU216HW,2013-05-15 16:30:00,
2013-05-15 12:35:00,59.0,47.2,30.30,SE,135,5.1,6.2,65,0.00,,,0.00,WUHU216HW,2013-05-15 16:35:00,
2013-05-15 12:40:00,58.8,47.4,30.29,SE,135,6.4,6.4,66,0.00,,,0.00,WUHU216HW,2013-05-15 16:40:00,
2013-05-15 12:45:00,58.8,47.8,30.28,SE,135,2.0,6.7,67,0.00,,,0.00,WUHU216HW,2013-05-15 16:45:00,
2013-05-15 12:50:00,59.0,48.8,30.28,SSE,158,0.0,6.7,69,0.00,,,0.00,WUHU216HW,2013-05-15 16:50:00,
2013-05-15 12:55:00,59.0,49.2,30.27,SSE,158,0.0,7.3,70,0.00,,,0.00,WUHU216HW,2013-05-15 16:55:00,
2013-05-15 13:00:00,58.8,49.4,30.27,SSE,158,2.4,7.3,71,0.00,,,0.00,WUHU216HW,2013-05-15 17:00:00,
2013-05-15 13:05:00,58.6,49.6,30.28,East,90,5.5,6.4,71,0.00,,,0.00,WUHU216HW,2013-05-15 17:05:00,
2013-05-15 13:10:00,58.6,49.6,30.26,ESE,113,1.3,6.7,72,0.00,,,0.00,WUHU216HW,2013-05-15 17:10:00,
2013-05-15 13:15:00,58.8,49.8,30.27,SE,135,2.2,6.7,72,0.00,,,0.00,WUHU216HW,2013-05-15 17:15:00,
2013-05-15 13:20:00,59.1,50.1,30.26,SE,135,0.4,6.0,72,0.00,,,0.00,WUHU216HW,2013-05-15 17:20:00,
2013-05-15 13:25:00,59.5,50.5,30.26,SSE,158,4.6,6.0,72,0.00,,,0.00,WUHU216HW,2013-05-15 17:25:00,
2013-05-15 13:30:00,59.9,50.5,30.26,ESE,113,6.4,7.3,71,0.00,,,0.00,WUHU216HW,2013-05-15 17:30:00,
2013-05-15 13:35:00,60.0,51.0,30.26,SE,135,4.6,7.3,71,0.00,,,0.00,WUHU216HW,2013-05-15 17:35:00,
2013-05-15 13:41:00,60.8,51.4,30.26,SE,135,0.0,4.6,71,0.00,,,0.00,WUHU216HW,2013-05-15 17:41:00,
2013-05-15 13:46:00,60.9,51.2,30.26,SE,135,7.8,7.8,70,0.00,,,0.00,WUHU216HW,2013-05-15 17:46:00,
2013-05-15 13:51:00,60.9,51.2,30.26,SSE,158,0.0,7.8,70,0.00,,,0.00,WUHU216HW,2013-05-15 17:51:00,
2013-05-15 13:56:00,60.9,51.6,30.26,SSE,158,2.4,7.8,71,0.00,,,0.00,WUHU216HW,2013-05-15 17:56:00,
2013-05-15 14:01:00,60.9,51.6,30.26,SSE,158,3.3,6.9,71,0.00,,,0.00,WUHU216HW,2013-05-15 18:01:00,
2013-05-15 14:06:00,60.9,51.6,30.27,SSE,158,1.5,6.9,71,0.00,,,0.00,WUHU216HW,2013-05-15 18:06:00,
2013-05-15 14:12:00,61.1,51.7,30.27,ENE,68,0.0,3.3,71,0.00,,,0.00,WUHU216HW,2013-05-15 18:12:00,
2013-05-15 14:17:00,61.1,51.7,30.25,ESE,113,4.2,4.2,71,0.00,,,0.00,WUHU216HW,2013-05-15 18:17:00,
2013-05-15 14:22:00,61.1,51.7,30.25,NE,45,0.0,4.2,71,0.00,,,0.00,WUHU216HW,2013-05-15 18:22:00,
2013-05-15 14:28:00,61.5,52.0,30.24,SE,135,2.6,2.6,71,0.00,,,0.00,WUHU216HW,2013-05-15 18:28:00,
2013-05-15 14:33:00,61.8,52.0,30.24,ESE,113,3.8,6.7,70,0.00,,,0.00,WUHU216HW,2013-05-15 18:33:00,
2013-05-15 14:38:00,61.8,52.0,30.24,SE,135,0.0,6.7,70,0.00,,,0.00,WUHU216HW,2013-05-15 18:38:00,
2013-05-15 14:44:00,62.0,52.2,30.23,SE,135,0.0,3.8,70,0.00,,,0.00,WUHU216HW,2013-05-15 18:44:00,
2013-05-15 14:49:00,62.2,51.9,30.23,SE,135,6.2,7.3,69,0.00,,,0.00,WUHU216HW,2013-05-15 18:49:00,
2013-05-15 14:54:00,62.2,51.9,30.23,SE,135,0.0,7.3,69,0.00,,,0.00,WUHU216HW,2013-05-15 18:54:00,
2013-05-15 14:59:00,62.2,51.9,30.22,SE,135,0.0,6.7,69,0.00,,,0.00,WUHU216HW,2013-05-15 18:59:00,
2013-05-15 15:04:00,62.4,52.5,30.21,ESE,113,0.0,5.5,70,0.00,,,0.00,WUHU216HW,2013-05-15 19:04:00,
2013-05-15 15:09:00,62.7,52.4,30.20,East,90,6.0,6.4,69,0.00,,,0.00,WUHU216HW,2013-05-15 19:09:00,
2013-05-15 15:14:00,63.3,52.9,30.19,ESE,113,5.8,6.4,69,0.00,,,0.00,WUHU216HW,2013-05-15 19:14:00,
2013-05-15 15:20:00,63.5,53.1,30.17,SE,135,0.0,5.8,69,0.00,,,0.00,WUHU216HW,2013-05-15 19:20:00,
2013-05-15 15:25:00,63.6,53.3,30.16,SE,135,7.8,7.8,69,0.00,,,0.00,WUHU216HW,2013-05-15 19:25:00,
2013-05-15 15:30:00,63.6,53.3,30.16,SE,135,2.6,7.8,69,0.00,,,0.00,WUHU216HW,2013-05-15 19:30:00,
2013-05-15 15:35:00,63.5,53.1,30.15,SE,135,6.0,6.0,69,0.00,,,0.00,WUHU216HW,2013-05-15 19:35:00,
2013-05-15 15:40:00,63.5,53.1,30.15,SE,135,4.6,6.0,69,0.00,,,0.00,WUHU216HW,2013-05-15 19:40:00,
2013-05-15 15:45:00,62.9,52.6,30.15,SE,135,0.0,4.6,69,0.00,,,0.00,WUHU216HW,2013-05-15 19:45:00,
2013-05-15 15:50:00,62.9,52.6,30.15,SE,135,5.5,5.5,69,0.00,,,0.00,WUHU216HW,2013-05-15 19:50:00,
2013-05-15 15:55:00,62.9,52.6,30.14,East,90,2.4,5.5,69,0.00,,,0.00,WUHU216HW,2013-05-15 19:55:00,
2013-05-15 16:00:00,62.9,52.6,30.13,ESE,113,0.0,4.9,69,0.00,,,0.00,WUHU216HW,2013-05-15 20:00:00,
2013-05-15 16:05:00,63.5,53.1,30.13,SE,135,5.5,5.5,69,0.00,,,0.00,WUHU216HW,2013-05-15 20:05:00,
2013-05-15 16:11:00,63.6,52.5,30.13,SE,135,0.0,5.5,67,0.00,,,0.00,WUHU216HW,2013-05-15 20:11:00,
2013-05-15 16:16:00,63.8,52.2,30.13,SE,135,0.0,5.5,66,0.00,,,0.00,WUHU216HW,2013-05-15 20:16:00,
2013-05-15 16:21:00,63.6,52.0,30.12,ESE,113,6.9,6.9,66,0.00,,,0.00,WUHU216HW,2013-05-15 20:21:00,
2013-05-15 16:26:00,63.5,52.3,30.11,ESE,113,6.2,6.9,67,0.00,,,0.00,WUHU216HW,2013-05-15 20:26:00,
2013-05-15 16:31:00,63.6,52.5,30.11,SE,135,0.0,6.9,67,0.00,,,0.00,WUHU216HW,2013-05-15 20:31:00,
2013-05-15 16:37:00,64.2,53.0,30.11,SE,135,7.3,7.3,68,0.00,,,0.00,WUHU216HW,2013-05-15 20:37:00,
2013-05-15 16:42:00,64.2,53.0,30.11,SE,135,0.0,7.3,67,0.00,,,0.00,WUHU216HW,2013-05-15 20:42:00,
2013-05-15 16:47:00,64.5,53.3,30.10,SW,225,4.2,6.9,67,0.00,,,0.00,WUHU216HW,2013-05-15 20:47:00,
2013-05-15 16:52:00,64.5,53.3,30.10,ESE,113,0.0,8.2,67,0.00,,,0.00,WUHU216HW,2013-05-15 20:52:00,
2013-05-15 16:57:00,64.5,53.3,30.10,East,90,4.6,8.2,67,0.00,,,0.00,WUHU216HW,2013-05-15 20:57:00,
2013-05-15 17:02:00,64.7,53.5,30.11,ESE,113,1.5,5.8,67,0.00,,,0.00,WUHU216HW,2013-05-15 21:02:00,
2013-05-15 17:08:00,65.1,53.4,30.11,SE,135,6.0,6.0,66,0.00,,,0.00,WUHU216HW,2013-05-15 21:08:00,
2013-05-15 17:13:00,65.1,53.4,30.12,East,90,0.0,6.0,66,0.00,,,0.00,WUHU216HW,2013-05-15 21:13:00,
2013-05-15 17:18:00,65.3,53.1,30.12,ESE,113,0.4,6.0,65,0.00,,,0.00,WUHU216HW,2013-05-15 21:18:00,
2013-05-15 17:23:00,65.4,53.1,30.11,ESE,113,5.5,6.9,65,0.00,,,0.00,WUHU216HW,2013-05-15 21:23:00,
2013-05-15 17:28:00,65.6,53.5,30.11,SE,135,0.0,6.9,65,0.00,,,0.00,WUHU216HW,2013-05-15 21:28:00,
2013-05-15 17:33:00,65.8,53.7,30.11,SE,135,6.9,6.9,65,0.00,,,0.00,WUHU216HW,2013-05-15 21:33:00,
2013-05-15 17:38:00,66.0,53.4,30.10,SSE,158,0.0,6.9,64,0.00,,,0.00,WUHU216HW,2013-05-15 21:38:00,
2013-05-15 17:43:00,66.0,53.4,30.09,ENE,68,0.0,5.8,64,0.00,,,0.00,WUHU216HW,2013-05-15 21:43:00,
2013-05-15 17:48:00,66.3,53.7,30.10,SE,135,0.0,6.9,64,0.00,,,0.00,WUHU216HW,2013-05-15 21:48:00,
2013-05-15 17:53:00,66.3,53.7,30.09,SE,135,0.0,6.9,64,0.00,,,0.00,WUHU216HW,2013-05-15 21:53:00,
2013-05-15 17:59:00,66.5,53.9,30.09,SE,135,0.0,0.0,64,0.00,,,0.00,WUHU216HW,2013-05-15 21:59:00,
2013-05-15 18:04:00,66.7,54.1,30.09,SE,135,0.0,0.0,64,0.00,,,0.00,WUHU216HW,2013-05-15 22:04:00,
2013-05-15 18:09:00,66.9,54.3,30.09,SE,135,0.0,0.0,64,0.00,,,0.00,WUHU216HW,2013-05-15 22:09:00,
2013-05-15 18:14:00,67.2,54.2,30.08,SE,135,0.0,0.0,63,0.00,,,0.00,WUHU216HW,2013-05-15 22:14:00,
2013-05-15 18:19:00,67.2,54.2,30.09,SE,135,0.0,0.0,63,0.00,,,0.00,WUHU216HW,2013-05-15 22:19:00,
2013-05-15 18:24:00,67.2,54.2,30.08,SE,135,0.4,0.4,63,0.00,,,0.00,WUHU216HW,2013-05-15 22:24:00,
2013-05-15 18:29:00,67.1,54.4,30.08,SE,135,0.0,0.4,64,0.00,,,0.00,WUHU216HW,2013-05-15 22:29:00,
2013-05-15 18:35:00,66.9,54.3,30.08,SE,135,0.0,0.0,64,0.00,,,0.00,WUHU216HW,2013-05-15 22:35:00,
2013-05-15 18:40:00,66.9,54.3,30.08,SE,135,0.0,0.0,64,0.00,,,0.00,WUHU216HW,2013-05-15 22:40:00,
2013-05-15 18:45:00,66.7,54.1,30.08,ESE,113,0.0,2.9,64,0.00,,,0.00,WUHU216HW,2013-05-15 22:45:00,
2013-05-15 18:50:00,66.7,54.5,30.08,SE,135,0.0,2.9,65,0.00,,,0.00,WUHU216HW,2013-05-15 22:50:00,
2013-05-15 18:55:00,66.5,54.3,30.08,ESE,113,0.0,6.7,65,0.00,,,0.00,WUHU216HW,2013-05-15 22:55:00,
2013-05-15 19:00:00,66.3,54.2,30.08,ESE,113,1.5,6.7,65,0.00,,,0.00,WUHU216HW,2013-05-15 23:00:00,
2013-05-15 19:05:00,66.0,54.2,30.08,SE,135,0.0,6.7,66,0.00,,,0.00,WUHU216HW,2013-05-15 23:05:00,
2013-05-15 19:10:00,65.8,54.1,30.08,SE,135,0.0,6.7,66,0.00,,,0.00,WUHU216HW,2013-05-15 23:10:00,
2013-05-15 19:15:00,65.6,54.3,30.08,SE,135,0.0,1.3,67,0.00,,,0.00,WUHU216HW,2013-05-15 23:15:00,
2013-05-15 19:20:00,65.4,54.1,30.08,SE,135,0.0,0.0,67,0.00,,,0.00,WUHU216HW,2013-05-15 23:20:00,
2013-05-15 19:25:00,65.4,54.1,30.07,SE,135,0.0,0.0,67,0.00,,,0.00,WUHU216HW,2013-05-15 23:25:00,
2013-05-15 19:30:00,65.3,54.0,30.07,SE,135,0.0,0.0,67,0.00,,,0.00,WUHU216HW,2013-05-15 23:30:00,
2013-05-15 19:35:00,65.1,53.8,30.07,SE,135,0.0,0.0,67,0.00,,,0.00,WUHU216HW,2013-05-15 23:35:00,
2013-05-15 19:40:00,65.1,54.2,30.07,SE,135,6.0,6.0,68,0.00,,,0.00,WUHU216HW,2013-05-15 23:40:00,
2013-05-15 19:46:00,65.1,54.2,30.07,SE,135,0.0,6.0,68,0.00,,,0.00,WUHU216HW,2013-05-15 23:46:00,
2013-05-15 19:51:00,65.1,54.2,30.07,SE,135,0.0,6.0,68,0.00,,,0.00,WUHU216HW,2013-05-15 23:51:00,
2013-05-15 19:56:00,65.1,54.2,30.07,SE,135,0.0,0.0,68,0.00,,,0.00,WUHU216HW,2013-05-15 23:56:00,
2013-05-15 20:01:00,65.1,54.2,30.07,SE,135,0.0,0.0,68,0.00,,,0.00,WUHU216HW,2013-05-16 00:01:00,
2013-05-15 20:06:00,65.1,54.2,30.07,SE,135,0.0,0.0,68,0.00,,,0.00,WUHU216HW,2013-05-16 00:06:00,
2013-05-15 20:11:00,65.1,54.2,30.07,SE,135,0.0,0.0,68,0.00,,,0.00,WUHU216HW,2013-05-16 00:11:00,
2013-05-15 20:16:00,65.1,54.7,30.07,SE,135,0.0,0.0,69,0.00,,,0.00,WUHU216HW,2013-05-16 00:16:00,
2013-05-15 20:21:00,65.4,55.0,30.07,SE,135,0.0,0.0,69,0.00,,,0.00,WUHU216HW,2013-05-16 00:21:00,
2013-05-15 20:26:00,65.8,55.3,30.07,SE,135,0.0,0.0,69,0.00,,,0.00,WUHU216HW,2013-05-16 00:26:00,
2013-05-15 20:31:00,66.5,56.0,30.07,ESE,113,0.0,0.0,69,0.00,,,0.00,WUHU216HW,2013-05-16 00:31:00,
2013-05-15 20:36:00,66.9,55.9,30.07,ENE,68,0.0,0.0,68,0.00,,,0.00,WUHU216HW,2013-05-16 00:36:00,
2013-05-15 20:41:00,67.1,56.1,30.07,ENE,68,0.0,0.0,68,0.00,,,0.00,WUHU216HW,2013-05-16 00:41:00,
2013-05-15 20:46:00,67.8,56.8,30.07,North,0,0.0,0.0,68,0.00,,,0.00,WUHU216HW,2013-05-16 00:46:00,
2013-05-15 20:51:00,67.8,56.4,30.07,NNE,23,0.0,0.0,67,0.00,,,0.00,WUHU216HW,2013-05-16 00:51:00,
2013-05-15 20:56:00,68.1,56.7,30.07,North,0,0.0,0.0,67,0.00,,,0.00,WUHU216HW,2013-05-16 00:56:00,
2013-05-15 21:02:00,68.3,56.9,30.08,NNE,23,0.0,0.0,67,0.00,,,0.00,WUHU216HW,2013-05-16 01:02:00,
2013-05-15 21:08:00,68.5,56.6,30.08,NNE,23,4.0,4.0,66,0.00,,,0.00,WUHU216HW,2013-05-16 01:08:00,
2013-05-15 21:13:00,68.7,56.8,30.08,NNE,23,0.0,4.0,66,0.00,,,0.00,WUHU216HW,2013-05-16 01:13:00,
2013-05-15 21:18:00,68.7,56.8,30.08,North,0,0.0,4.0,66,0.00,,,0.00,WUHU216HW,2013-05-16 01:18:00,
2013-05-15 21:23:00,68.7,56.8,30.08,NNW,338,0.0,0.0,66,0.00,,,0.00,WUHU216HW,2013-05-16 01:23:00,
2013-05-15 21:28:00,68.7,56.8,30.08,NNW,338,0.0,0.0,66,0.00,,,0.00,WUHU216HW,2013-05-16 01:28:00,
2013-05-15 21:33:00,68.7,56.8,30.08,North,0,0.0,0.0,66,0.00,,,0.00,WUHU216HW,2013-05-16 01:33:00,
2013-05-15 21:38:00,68.7,56.8,30.08,NW,315,0.0,0.0,66,0.00,,,0.00,WUHU216HW,2013-05-16 01:38:00,
2013-05-15 21:43:00,68.7,56.8,30.08,ESE,113,0.0,1.7,66,0.00,,,0.00,WUHU216HW,2013-05-16 01:43:00,
2013-05-15 21:48:00,68.7,56.8,30.08,NE,45,0.0,2.4,66,0.00,,,0.00,WUHU216HW,2013-05-16 01:48:00,
2013-05-15 21:54:00,68.7,56.8,30.08,North,0,0.0,4.6,66,0.00,,,0.00,WUHU216HW,2013-05-16 01:54:00,
2013-05-15 21:59:00,68.7,56.8,30.08,NW,315,0.0,4.6,66,0.00,,,0.00,WUHU216HW,2013-05-16 01:59:00,
2013-05-15 22:04:00,68.7,56.8,30.08,North,0,0.0,0.0,66,0.00,,,0.00,WUHU216HW,2013-05-16 02:04:00,
2013-05-15 22:09:00,68.7,57.2,30.08,NW,315,0.0,0.0,67,0.00,,,0.00,WUHU216HW,2013-05-16 02:09:00,
2013-05-15 22:14:00,68.7,57.2,30.08,NW,315,0.0,7.1,67,0.00,,,0.00,WUHU216HW,2013-05-16 02:14:00,
2013-05-15 22:19:00,68.7,57.2,30.10,NW,315,0.0,7.1,67,0.00,,,0.00,WUHU216HW,2013-05-16 02:19:00,
2013-05-15 22:24:00,68.5,57.1,30.11,WNW,293,0.0,2.4,67,0.00,,,0.00,WUHU216HW,2013-05-16 02:24:00,
2013-05-15 22:29:00,68.5,57.1,30.11,WNW,293,0.0,0.0,67,0.00,,,0.00,WUHU216HW,2013-05-16 02:29:00,
2013-05-15 22:34:00,68.5,57.1,30.12,NW,315,0.0,0.0,67,0.00,,,0.00,WUHU216HW,2013-05-16 02:34:00,
2013-05-15 22:39:00,68.7,57.7,30.10,NW,315,0.0,0.0,68,0.00,,,0.00,WUHU216HW,2013-05-16 02:39:00,
2013-05-15 22:44:00,68.7,57.7,30.11,NW,315,2.9,2.9,68,0.00,,,0.00,WUHU216HW,2013-05-16 02:44:00,
2013-05-15 22:49:00,68.7,57.7,30.10,NW,315,0.0,2.9,68,0.00,,,0.00,WUHU216HW,2013-05-16 02:49:00,
2013-05-15 22:54:00,68.9,57.4,30.10,NNW,338,0.0,0.0,67,0.00,,,0.00,WUHU216HW,2013-05-16 02:54:00,
2013-05-15 22:59:00,68.9,57.4,30.10,ESE,113,0.0,0.0,67,0.00,,,0.00,WUHU216HW,2013-05-16 02:59:00,
2013-05-15 23:04:00,68.9,57.4,30.10,NE,45,0.0,7.3,67,0.00,,,0.00,WUHU216HW,2013-05-16 03:04:00,
2013-05-15 23:09:00,68.9,57.4,30.10,NNE,23,0.0,7.3,67,0.00,,,0.00,WUHU216HW,2013-05-16 03:09:00,
2013-05-15 23:14:00,68.9,57.4,30.10,NW,315,0.0,0.0,67,0.00,,,0.00,WUHU216HW,2013-05-16 03:14:00,
2013-05-15 23:19:00,68.7,57.2,30.10,North,0,0.0,0.0,67,0.00,,,0.00,WUHU216HW,2013-05-16 03:19:00,
2013-05-15 23:24:00,68.7,57.2,30.10,NE,45,0.0,0.0,67,0.00,,,0.00,WUHU216HW,2013-05-16 03:24:00,
2013-05-15 23:29:00,68.7,57.2,30.10,NNW,338,0.0,0.0,67,0.00,,,0.00,WUHU216HW,2013-05-16 03:29:00,
2013-05-15 23:34:00,68.5,57.1,30.10,NNW,338,0.0,0.0,67,0.00,,,0.00,WUHU216HW,2013-05-16 03:34:00,
2013-05-15 23:39:00,68.5,57.1,30.10,NNW,338,0.0,0.0,67,0.00,,,0.00,WUHU216HW,2013-05-16 03:39:00,
2013-05-15 23:44:00,68.3,56.9,30.10,NNW,338,0.0,0.0,67,0.00,,,0.00,WUHU216HW,2013-05-16 03:44:00,
2013-05-15 23:49:00,68.1,57.2,30.10,NNW,338,0.0,0.0,68,0.00,,,0.00,WUHU216HW,2013-05-16 03:49:00,
2013-05-15 23:54:00,68.3,57.3,30.10,NNW,338,3.1,4.6,68,0.00,,,0.00,WUHU216HW,2013-05-16 03:54:00,
2013-05-15 23:59:00,68.3,57.3,30.10,NNE,23,0.0,4.6,68,0.00,,,0.00,WUHU216HW,2013-05-16 03:59:00,